Temperatur und Luftfeuchte

Temperatur und Luftfeuchte

Die letzten 100 Messwerte

Nummer Datum und Zeit Sensor ID Temperatur in Celsius gef├╝hlte Temperatur Luftfeuchte in %
37841 2021-01-18 08:53:40 Terrasse 1.60 0.42 99.90
37840 2021-01-18 08:25:24 Terrasse 1.70 0.53 99.90
37839 2021-01-18 07:57:08 Terrasse 1.70 0.53 99.90
37838 2021-01-18 07:28:52 Terrasse 1.70 0.53 99.90
37837 2021-01-18 07:00:36 Terrasse 1.70 0.53 99.90
37836 2021-01-18 06:32:21 Terrasse 1.80 0.64 99.90
37835 2021-01-18 06:04:05 Terrasse 1.90 0.75 99.90
37834 2021-01-18 05:35:50 Terrasse 1.80 0.64 99.90
37833 2021-01-18 05:07:33 Terrasse 1.80 0.64 99.90
37832 2021-01-18 04:39:20 Terrasse 1.80 0.64 99.90
37831 2021-01-18 04:11:07 Terrasse 1.80 0.64 99.90
37830 2021-01-18 03:42:48 Terrasse 1.80 0.64 99.90
37829 2021-01-18 03:14:33 Terrasse 1.80 0.64 99.90
37828 2021-01-18 02:46:16 Terrasse 1.70 0.53 99.90
37827 2021-01-18 02:18:02 Terrasse 1.70 0.53 99.90
37826 2021-01-18 01:49:47 Terrasse 1.70 0.53 99.90
37825 2021-01-18 01:21:30 Terrasse 1.70 0.53 99.90
37824 2021-01-18 00:53:17 Terrasse 1.60 0.42 99.90
37823 2021-01-18 00:25:01 Terrasse 1.50 0.31 99.90
37822 2021-01-17 23:56:44 Terrasse 1.40 0.20 99.90
37821 2021-01-17 23:28:28 Terrasse 1.30 0.09 99.90
37820 2021-01-17 23:00:13 Terrasse 1.20 -0.02 99.90
37819 2021-01-17 22:31:55 Terrasse 1.00 -0.24 99.90
37818 2021-01-17 22:03:39 Terrasse 0.80 -0.46 99.90
37817 2021-01-17 21:35:23 Terrasse 0.70 -0.57 99.90
37816 2021-01-17 21:07:07 Terrasse 0.70 -0.57 99.90
37815 2021-01-17 20:38:52 Terrasse 0.60 -0.68 99.90
37814 2021-01-17 20:10:35 Terrasse 0.60 -0.68 99.90
37813 2021-01-17 19:42:20 Terrasse 0.50 -0.79 99.90
37812 2021-01-17 19:14:04 Terrasse 0.50 -0.79 99.90
37811 2021-01-17 18:45:48 Terrasse 0.40 -0.90 99.90
37810 2021-01-17 18:17:31 Terrasse 0.30 -1.01 99.90
37809 2021-01-17 17:49:14 Terrasse 0.30 -1.01 99.90
37808 2021-01-17 17:20:59 Terrasse 0.30 -1.01 99.90
37807 2021-01-17 16:52:44 Terrasse 0.30 -1.01 99.90
37806 2021-01-17 16:24:27 Terrasse 0.30 -1.01 99.90
37805 2021-01-17 15:56:12 Terrasse 0.30 -1.01 99.90
37804 2021-01-17 15:27:56 Terrasse 0.40 -0.90 99.90
37803 2021-01-17 14:59:41 Terrasse 0.30 -1.01 99.90
37802 2021-01-17 14:31:26 Terrasse 0.40 -0.90 99.90
37801 2021-01-17 14:03:10 Terrasse 0.30 -1.01 99.90
37800 2021-01-17 13:34:53 Terrasse 0.10 -1.23 99.90
37799 2021-01-17 13:06:38 Terrasse -0.10 -1.45 99.90
37798 2021-01-17 12:38:22 Terrasse -0.20 -1.56 99.90
37797 2021-01-17 12:10:05 Terrasse -0.40 -1.78 99.90
37796 2021-01-17 11:41:49 Terrasse -0.60 -2.00 99.90
37795 2021-01-17 11:13:35 Terrasse -0.80 -2.22 99.90
37794 2021-01-17 10:45:19 Terrasse -1.00 -2.44 99.90
37793 2021-01-17 10:17:03 Terrasse -1.10 -2.55 99.90
37792 2021-01-17 09:48:48 Terrasse -1.10 -2.55 99.90
37791 2021-01-17 09:20:31 Terrasse -1.20 -2.66 99.90
37790 2021-01-17 08:52:16 Terrasse -1.30 -2.77 99.90
37789 2021-01-17 08:24:01 Terrasse -1.30 -2.77 99.90
37788 2021-01-17 07:55:46 Terrasse -1.30 -2.77 99.90
37787 2021-01-17 07:27:31 Terrasse -1.30 -2.77 99.90
37786 2021-01-17 06:59:15 Terrasse -1.40 -2.88 99.90
37785 2021-01-17 06:30:59 Terrasse -1.40 -2.88 99.90
37784 2021-01-17 06:02:44 Terrasse -1.40 -2.88 99.90
37783 2021-01-17 05:34:28 Terrasse -1.40 -2.88 99.90
37782 2021-01-17 05:06:14 Terrasse -1.50 -2.99 99.90
37781 2021-01-17 04:37:58 Terrasse -1.50 -2.99 99.90
37780 2021-01-17 04:09:43 Terrasse -1.50 -2.99 99.90
37779 2021-01-17 03:41:27 Terrasse -1.50 -2.99 99.90
37778 2021-01-17 03:13:12 Terrasse -1.30 -2.77 99.90
37777 2021-01-17 02:44:57 Terrasse -1.40 -2.88 99.90
37776 2021-01-17 02:16:54 Terrasse -1.30 -2.77 99.90
37775 2021-01-17 01:48:35 Terrasse -1.30 -2.77 99.90
37774 2021-01-17 01:20:21 Terrasse -1.30 -2.77 99.90
37773 2021-01-17 00:52:05 Terrasse -1.40 -2.88 99.90
37772 2021-01-17 00:23:48 Terrasse -1.40 -2.88 99.90
37771 2021-01-16 23:55:33 Terrasse -1.40 -2.88 99.90
37770 2021-01-16 23:27:21 Terrasse -1.30 -2.77 99.90
37769 2021-01-16 22:59:36 Terrasse -1.10 -2.55 99.90
37768 2021-01-16 22:31:38 Terrasse -0.90 -2.33 99.90
37767 2021-01-16 22:03:30 Terrasse -0.90 -2.33 99.90
37766 2021-01-16 21:35:35 Terrasse -0.80 -2.22 99.90
37765 2021-01-16 21:07:36 Terrasse -0.80 -2.22 99.90
37764 2021-01-16 20:39:34 Terrasse -0.70 -2.11 99.90
37763 2021-01-16 20:11:05 Terrasse -0.70 -2.11 99.90
37762 2021-01-16 19:42:48 Terrasse -0.60 -2.00 99.90
37761 2021-01-16 19:14:33 Terrasse -0.60 -2.00 99.90
37760 2021-01-16 18:46:18 Terrasse -0.50 -1.89 99.90
37759 2021-01-16 18:18:02 Terrasse -0.40 -1.94 93.60
37758 2021-01-16 17:49:47 Terrasse -0.40 -1.82 98.20
37757 2021-01-16 17:21:32 Terrasse -0.30 -1.80 94.70
37756 2021-01-16 16:53:16 Terrasse -0.30 -1.76 96.20
37755 2021-01-16 16:25:01 Terrasse -0.20 -1.73 93.10
37754 2021-01-16 15:56:45 Terrasse -0.10 -1.86 84.20
37753 2021-01-16 15:28:30 Terrasse 0.00 -1.76 83.70
37752 2021-01-16 15:00:14 Terrasse 0.10 -1.77 79.10
37751 2021-01-16 14:31:58 Terrasse 0.10 -1.88 74.70
37750 2021-01-16 14:03:43 Terrasse 0.10 -1.88 75.00
37749 2021-01-16 13:35:27 Terrasse 0.20 -1.72 76.90
37748 2021-01-16 13:07:12 Terrasse 0.10 -1.94 72.40
37747 2021-01-16 12:38:56 Terrasse 0.10 -1.85 75.90
37746 2021-01-16 12:10:42 Terrasse -0.10 -2.09 75.30
37745 2021-01-16 11:42:25 Terrasse -0.20 -2.14 77.50
37744 2021-01-16 11:14:09 Terrasse -0.30 -2.11 83.00
37743 2021-01-16 10:45:53 Terrasse -0.40 -2.02 90.60
37742 2021-01-16 10:17:37 Terrasse -0.40 -1.93 93.90